Waarnemingen

Advertentie
Mijn weer
Metz-Nancy-Lorraine, Frankrijk (7093): temperatuur & dauwpunt: 15.01.2017 01:00:00 - 21.01.2017 01:00:00 (CET)Metz-Nancy-Lorraine, Frankrijk (7093): windsnelheid & windstoten: 15.01.2017 01:00:00 - 21.01.2017 01:00:00 (CET)Metz-Nancy-Lorraine, Frankrijk (7093): windrichting: 15.01.2017 01:00:00 - 21.01.2017 01:00:00 (CET)Metz-Nancy-Lorraine, Frankrijk (7093): luchtdruk: 15.01.2017 01:00:00 - 21.01.2017 01:00:00 (CET)Metz-Nancy-Lorraine, Frankrijk (7093): zicht: 15.01.2017 01:00:00 - 21.01.2017 01:00:00 (CET)Metz-Nancy-Lorraine, Frankrijk (7093): Zonneschijnduur: 15.01.2017 01:00:00 - 21.01.2017 01:00:00 (CET)Metz-Nancy-Lorraine, Frankrijk (7093): neerslag: 15.01.2017 01:00:00 - 21.01.2017 01:00:00 (CET)
Datum & Tijd tt [°C] td [°C] ff [km/u] ff [kn] fx [km/u] fx [kn] dd ppp [hPa] vv [km] sd [min] rr [mm]
21.01.2017 01:00:00 - - - - - - - - - - -
21.01.2017 00:00:00 -6,7 -10,6 11 6 15 8 ONO 1031,8 18 0 0,0
20.01.2017 23:00:00 -5,1 -10,1 2 1 16 9 - 1031,8 10 0 0,0
20.01.2017 22:00:00 -6,8 -10,3 12 6 16 8 ONO 1032,2 16 0 0,0
20.01.2017 21:00:00 -5,3 -8,9 8 4 15 8 O 1032,1 12 0 0,0
20.01.2017 20:00:00 -5,9 -9,1 13 7 20 11 O 1032,1 13 0 0,0
20.01.2017 19:00:00 -3,7 -7,8 16 8 25 14 O 1031,8 14 0 0,0
20.01.2017 18:00:00 -3,2 -7,4 15 8 19 10 ZO 1031,6 13 0 0,0
20.01.2017 17:00:00 -1,4 -6,9 14 7 18 10 O 1031,1 23 45 0,0
20.01.2017 16:00:00 0,7 -5,8 7 4 12 7 O 1031,1 26 60 0,0
20.01.2017 15:00:00 0,8 -5,2 9 5 20 11 ONO 1031,0 20 60 0,0
20.01.2017 14:00:00 0,5 -5,9 13 7 26 14 O 1031,4 19 60 0,0
20.01.2017 13:00:00 -0,3 -6,7 16 9 26 14 O 1032,1 18 60 0,0
20.01.2017 12:00:00 -1,6 -7,7 19 10 32 17 O 1032,8 17 60 0,0
20.01.2017 11:00:00 -2,8 -8,3 21 11 33 18 O 1033,3 18 60 0,0
20.01.2017 10:00:00 -3,9 -8,8 19 10 32 17 O 1033,4 17 60 0,0
20.01.2017 09:00:00 -7,3 -10,5 13 7 22 12 O 1033,6 19 13 0,0
20.01.2017 08:00:00 -7,4 -10,9 9 5 15 8 O 1033,7 22 0 0,0
20.01.2017 07:00:00 -7,1 -10,6 0 0 14 7 N 1033,3 25 0 0,0
20.01.2017 06:00:00 -7,0 -10,7 2 1 31 17 WNW 1033,3 26 0 0,0
20.01.2017 05:00:00 -5,8 -9,7 23 12 41 22 ONO 1032,9 25 0 0,0
20.01.2017 04:00:00 -6,4 -9,6 26 14 33 18 ONO 1033,0 19 0 0,0
20.01.2017 03:00:00 -8,4 -10,6 22 12 26 14 ONO 1033,7 16 0 0,0
20.01.2017 02:00:00 -7,9 -10,6 18 10 24 13 ONO 1034,0 16 0 0,0
20.01.2017 01:00:00 -7,8 -10,5 14 8 19 10 ONO 1034,1 17 0 0,0
20.01.2017 00:00:00 -7,1 -10,1 10 6 19 11 NO 1034,3 17 0 0,0
19.01.2017 23:00:00 -5,6 -9,2 14 8 23 12 NO 1034,3 16 0 0,0
19.01.2017 22:00:00 -5,4 -9,1 9 5 18 10 NO 1034,4 16 0 0,0
19.01.2017 21:00:00 -6,0 -9,4 13 7 19 11 ONO 1034,7 17 0 0,0
19.01.2017 20:00:00 -5,6 -9,0 14 7 22 12 NO 1034,6 18 0 0,0
19.01.2017 19:00:00 -4,4 -8,5 14 8 20 11 ONO 1034,4 16 0 0,0
19.01.2017 18:00:00 -3,3 -7,8 15 8 21 11 ONO 1034,1 16 0 0,0
19.01.2017 17:00:00 -2,6 -7,3 13 7 23 12 NO 1033,8 14 43 0,0
19.01.2017 16:00:00 -0,9 -6,3 18 10 27 15 ONO 1033,6 14 60 0,0
19.01.2017 15:00:00 -0,2 -6,6 20 11 29 16 ONO 1033,7 10 60 0,0
19.01.2017 14:00:00 -0,8 -7,2 23 12 37 20 ONO 1034,2 8 60 0,0
19.01.2017 13:00:00 -1,6 -7,3 24 13 36 19 ONO 1034,4 8 60 0,0
19.01.2017 12:00:00 -2,5 -7,4 25 13 37 20 NO 1035,0 8 60 0,0
19.01.2017 11:00:00 -4,0 -8,0 13 7 21 12 ONO 1035,5 8 60 0,0
19.01.2017 10:00:00 -5,6 -8,8 8 4 16 8 NNO 1035,5 7 60 0,0
19.01.2017 09:00:00 -6,2 -9,2 6 3 15 8 WNW 1035,5 10 12 0,0
19.01.2017 08:00:00 -7,8 -9,4 9 5 23 13 NO 1035,2 9 0 0,0
19.01.2017 07:00:00 -7,6 -9,8 16 8 23 12 ONO 1034,9 10 0 0,0
19.01.2017 06:00:00 -6,8 -9,2 16 9 31 17 ONO 1034,6 10 0 0,0
19.01.2017 05:00:00 -6,9 -9,6 16 9 28 15 ONO 1034,7 10 0 0,0
19.01.2017 04:00:00 -6,1 -8,8 22 12 36 19 ONO 1034,7 12 0 0,0
19.01.2017 03:00:00 -5,9 -8,8 26 14 36 20 ONO 1034,6 11 0 0,0
19.01.2017 02:00:00 -6,1 -8,8 21 12 31 17 NO 1034,7 11 0 0,0
19.01.2017 01:00:00 -6,0 -8,9 19 10 34 18 NO 1034,9 11 0 0,0
19.01.2017 00:00:00 -5,7 -8,8 20 11 29 16 NO 1035,1 12 0 0,0
18.01.2017 23:00:00 -5,0 -8,4 21 11 34 18 ONO 1035,3 13 0 0,0
18.01.2017 22:00:00 -4,7 -8,3 22 12 40 22 ONO 1035,2 14 0 0,0
18.01.2017 21:00:00 -5,1 -8,3 19 10 29 15 ONO 1035,4 14 0 0,0
18.01.2017 20:00:00 -4,8 -8,4 18 10 35 19 NO 1035,7 15 0 0,0
18.01.2017 19:00:00 -5,0 -8,6 18 10 28 15 ONO 1035,7 16 0 0,0
18.01.2017 18:00:00 -4,2 -8,3 18 10 31 17 NO 1035,5 16 0 0,0
18.01.2017 17:00:00 -3,4 -7,7 16 9 30 16 NO 1035,0 15 42 0,0
18.01.2017 16:00:00 2,5 -4,3 20 11 33 18 NO 1034,6 20 60 0,0
18.01.2017 15:00:00 -1,3 -6,6 21 12 37 20 NO 1034,6 17 60 0,0
18.01.2017 14:00:00 -1,4 -6,5 24 13 42 23 NO 1034,9 16 60 0,0
18.01.2017 13:00:00 -1,7 -6,6 29 15 53 28 NO 1035,1 16 60 0,0
18.01.2017 12:00:00 -2,4 -6,8 31 17 58 31 ONO 1035,5 16 60 0,0
18.01.2017 11:00:00 -3,1 -7,3 39 21 58 32 ONO 1035,8 17 60 0,0
18.01.2017 10:00:00 -4,0 -7,4 37 20 56 30 NO 1035,7 19 60 0,0
18.01.2017 09:00:00 -4,9 -8,0 37 20 50 27 NO 1035,6 24 11 0,0
18.01.2017 08:00:00 -5,3 -8,2 29 16 49 26 NO 1035,7 23 0 0,0
18.01.2017 07:00:00 -5,1 -8,0 35 19 48 26 NO 1035,0 24 0 0,0
18.01.2017 06:00:00 -5,1 -8,0 31 17 44 24 ONO 1034,7 23 0 0,0
18.01.2017 05:00:00 -5,3 -8,0 30 16 43 23 ONO 1034,8 24 0 0,0
18.01.2017 04:00:00 -5,5 -8,1 28 15 37 20 ONO 1035,1 22 0 0,0
18.01.2017 03:00:00 -5,5 -8,1 22 12 32 18 ONO 1035,5 21 0 0,0
18.01.2017 02:00:00 -6,2 -8,9 19 11 28 15 ONO 1035,7 23 0 0,0
18.01.2017 01:00:00 -6,6 -9,5 19 10 26 14 ONO 1035,6 24 0 0,0
18.01.2017 00:00:00 -6,0 -8,7 9 5 16 9 N 1035,6 19 0 0,0
17.01.2017 23:00:00 -6,1 -8,8 13 7 19 10 NNO 1035,7 21 0 0,0
17.01.2017 22:00:00 -5,9 -8,6 10 6 18 10 NNO 1035,7 30 0 0,0
17.01.2017 21:00:00 -5,1 -8,5 11 6 30 16 NO 1035,5 30 0 0,0
17.01.2017 20:00:00 -4,2 -7,6 24 13 40 22 ONO 1035,2 41 0 0,0
17.01.2017 19:00:00 -4,1 -8,0 24 13 33 18 NO 1035,0 51 0 0,0
17.01.2017 18:00:00 -4,9 -8,5 21 11 29 16 NO 1034,7 48 0 0,0
17.01.2017 17:00:00 -3,7 -7,8 21 12 41 22 NO 1034,4 41 19 0,0
17.01.2017 16:00:00 -2,1 -6,8 29 15 40 21 NO 1034,0 23 54 0,0
17.01.2017 15:00:00 -1,5 -7,4 16 9 34 19 NNO 1033,9 18 52 0,0
17.01.2017 14:00:00 -1,1 -6,3 23 12 38 21 NO 1034,1 18 60 0,0
17.01.2017 13:00:00 -2,0 -6,4 18 10 40 21 ONO 1034,2 19 56 0,0
17.01.2017 12:00:00 -2,7 -6,9 15 8 31 17 NO 1034,8 20 46 0,0
17.01.2017 11:00:00 -3,4 -7,4 22 12 35 19 NO 1035,0 27 60 0,0
17.01.2017 10:00:00 -4,0 -6,8 14 7 34 18 NNO 1034,9 19 22 0,0
17.01.2017 09:00:00 -4,4 -6,2 16 8 29 16 ONO 1034,9 20 0 0,0
17.01.2017 08:00:00 -4,9 -6,1 19 10 28 15 NO 1034,4 13 0 0,0
17.01.2017 07:00:00 -5,0 -6,2 16 9 26 14 ONO 1033,9 10 0 0,0
17.01.2017 06:00:00 -6,1 -7,2 15 8 25 13 NO 1033,6 10 0 0,0
17.01.2017 05:00:00 -5,9 -6,7 19 10 29 16 ONO 1032,9 11 0 0,0
17.01.2017 04:00:00 -7,1 -8,2 2 1 14 8 - 1032,8 10 0 0,0
17.01.2017 03:00:00 -7,5 -8,3 2 1 16 8 NNO 1032,7 8 0 0,0
17.01.2017 02:00:00 -7,0 -7,9 8 5 16 9 N 1032,3 8 0 0,0
17.01.2017 01:00:00 -8,6 -9,4 6 3 11 6 NO 1032,2 5 0 0,0
17.01.2017 00:00:00 -6,6 -7,3 5 3 11 6 NNO 1031,8 8 0 0,0
16.01.2017 23:00:00 -7,5 -8,3 4 2 9 5 NNO 1031,6 9 0 0,0
16.01.2017 22:00:00 -7,5 -8,3 8 4 21 11 NO 1031,2 10 0 0,0
16.01.2017 21:00:00 -7,8 -8,9 16 8 22 12 NO 1030,3 13 0 0,0
16.01.2017 20:00:00 -7,0 -7,7 14 8 19 10 NO 1029,6 4,5 0 0,0
16.01.2017 19:00:00 -5,2 -5,7 8 5 13 7 NNO 1028,6 2,6 0 0,0
16.01.2017 18:00:00 -4,5 -4,9 9 5 12 7 NO 1028,0 3,9 0 0,0
16.01.2017 17:00:00 -2,5 -3,3 4 2 11 6 NNO 1027,4 1,1 34 0,0
16.01.2017 16:00:00 -1,7 -2,5 4 2 10 6 ONO 1027,0 2,3 60 0,0
16.01.2017 15:00:00 -1,4 -2,2 8 5 17 9 NNO 1026,9 5 43 0,0
16.01.2017 14:00:00 -1,5 -1,9 8 4 13 7 NNO 1026,5 4,8 2 0,0
16.01.2017 13:00:00 -1,7 -2,1 4 2 18 10 NNW 1026,6 2,9 0 0,0
16.01.2017 12:00:00 -2,1 -2,4 0 0 10 6 N 1026,9 3,4 0 0,6
16.01.2017 11:00:00 -2,3 -2,4 0 0 9 5 N 1026,8 1,4 3 0,0
16.01.2017 10:00:00 -2,7 -2,7 8 4 13 7 NNO 1026,5 0,2 0 0,0
16.01.2017 09:00:00 -2,7 -2,8 8 4 14 8 N 1026,1 0,6 0 0,0
16.01.2017 08:00:00 -2,6 -2,6 9 5 16 9 NNO 1025,6 0,2 0 0,0
16.01.2017 07:00:00 -2,2 -2,2 9 5 16 8 N 1025,0 0,5 0 0,0
16.01.2017 06:00:00 -2,6 -2,6 10 5 16 9 NO 1024,8 0,3 0 0,0
16.01.2017 05:00:00 -2,0 -2,0 13 7 18 10 NO 1024,5 0,3 0 0,2
16.01.2017 04:00:00 -3,8 -3,9 8 4 18 10 NO 1024,4 0,1 0 0,0
16.01.2017 03:00:00 -3,6 -4,0 7 4 10 5 ONO 1024,2 2,5 0 0,2
16.01.2017 02:00:00 -0,9 -1,0 6 3 13 7 ZO 1023,6 5 0 1,0
16.01.2017 01:00:00 -0,5 -0,6 9 5 17 9 O 1023,7 0,4 0 0,4
16.01.2017 00:00:00 -0,3 -0,4 5 3 10 6 OZO 1023,8 2,6 0 0,0
15.01.2017 23:00:00 -0,3 -0,4 5 3 12 6 Z 1023,8 2,3 0 0,2
15.01.2017 22:00:00 -0,3 -0,4 7 4 14 8 Z 1023,8 5 0 0,0
15.01.2017 21:00:00 -0,2 -0,6 6 4 10 5 ZW 1023,7 3,4 0 0,0
15.01.2017 20:00:00 -0,1 -1,1 6 3 15 8 W 1023,9 13 0 0,0
15.01.2017 19:00:00 0,1 -1,0 10 5 20 11 WZW 1023,7 16 0 0,0
15.01.2017 18:00:00 0,5 -1,3 12 6 16 9 ZW 1023,7 27 0 0,0
15.01.2017 17:00:00 0,8 -1,3 9 5 16 9 ZW 1023,5 45 0 0,0
15.01.2017 16:00:00 1,3 -1,4 9 5 19 11 WZW 1023,5 40 0 0,0
15.01.2017 15:00:00 1,5 -2,3 13 7 19 11 WZW 1023,3 32 2 0,0
15.01.2017 14:00:00 1,6 -1,8 14 8 20 11 WNW 1023,4 39 0 0,0
15.01.2017 13:00:00 1,5 -1,7 10 6 18 10 WNW 1023,5 34 17 0,0
15.01.2017 12:00:00 1,2 -1,2 6 3 13 7 W 1023,8 20 46 0,0
15.01.2017 11:00:00 1,0 -1,2 4 2 15 8 ZW 1023,8 18 52 0,0
15.01.2017 10:00:00 -0,4 -1,4 5 3 18 10 W 1023,7 12 3 0,0
15.01.2017 09:00:00 -0,4 -1,2 8 5 17 9 NW 1023,3 9 0 0,0
15.01.2017 08:00:00 -0,5 -1,3 10 5 16 9 W 1022,3 11 0 0,0
15.01.2017 07:00:00 -0,7 -1,3 10 5 16 9 WZW 1021,8 15 0 0,0
15.01.2017 06:00:00 -0,4 -1,0 12 6 19 10 WNW 1021,5 13 0 0,0
15.01.2017 05:00:00 -0,2 -0,9 13 7 19 10 WNW 1021,3 16 0 0,0
15.01.2017 04:00:00 -0,4 -1,2 13 7 17 9 WZW 1021,0 14 0 0,0
15.01.2017 03:00:00 -0,6 -1,3 14 7 22 12 WZW 1021,0 11 0 0,0
15.01.2017 02:00:00 -1,3 -1,7 12 6 18 10 Z 1020,6 13 0 0,0
15.01.2017 01:00:00 -1,3 -1,7 8 4 20 11 W 1020,5 13 0 0,0

tt = temperatuur
td = dauwpunt
ff = windsnelheid
fx = windstoten
dd = windrichting
ppp = luchtdruk
vv = zicht
sd = Zonneschijnduur
rr = neerslag

Weerstations in de omgeving